This is the latest recevied weather packets stored in our database for station/object KR4ELZ. If no packets are shown the sender has not sent any weather packets the latest 10 day(s).
| Time | Temp. | Humidity | Pressure | Rain* | Wind** | Luminosity | Snow |
|---|---|---|---|---|---|---|---|
| 1777475221 | 20° C | 94% | 1013.8 hPa | 0 mm | - | 158 W/m² | - |
| 1777474917 | 20° C | 95% | 1013.4 hPa | 0 mm | - | 176 W/m² | - |
| 1777474612 | 20° C | 96% | 1013.4 hPa | 0 mm | - | 199 W/m² | - |
| 1777474309 | 20° C | 98% | 1013.5 hPa | 0 mm | - | 180 W/m² | - |
| 1777474006 | 20° C | 97% | 1013.7 hPa | 0 mm | - | 133 W/m² | - |
| 1777473704 | 20° C | 99% | 1013.7 hPa | 0 mm | - | 278 W/m² | - |
| 1777473400 | 19.44° C | 99% | 1013.6 hPa | 0 mm | - | 290 W/m² | - |
| 1777473096 | 19.44° C | 99% | 1013.7 hPa | 0 mm | - | 132 W/m² | - |
| 1777472793 | 19.44° C | 99% | 1013.5 hPa | 0 mm | - | 104 W/m² | - |
| 1777472489 | 19.44° C | 99% | 1013.7 hPa | 0 mm | - | 97 W/m² | - |
| 1777472187 | 19.44° C | 99% | 1013.5 hPa | 0 mm | - | 89 W/m² | - |
| 1777471887 | 19.44° C | 99% | 1013.4 hPa | 0 mm | - | 72 W/m² | - |
| 1777471584 | 19.44° C | 99% | 1013.3 hPa | 0 mm | - | 77 W/m² | - |
| 1777471281 | 19.44° C | 99% | 1013.3 hPa | 0 mm | - | 74 W/m² | - |
| 1777470977 | 19.44° C | 99% | 1013.4 hPa | 0 mm | - | 73 W/m² | - |
| 1777470674 | 19.44° C | 99% | 1012.8 hPa | 0 mm | - | 48 W/m² | - |
| 1777470370 | 19.44° C | 99% | 1012.8 hPa | 0 mm | - | 57 W/m² | - |
| 1777470067 | 20° C | 99% | 1012.6 hPa | 0 mm | - | 73 W/m² | - |
| 1777469763 | 20° C | 99% | 1012.6 hPa | 0 mm | - | 74 W/m² | - |
| 1777469459 | 19.44° C | 99% | 1012.5 hPa | 0 mm | - | 49 W/m² | - |
| 1777469154 | 19.44° C | 99% | 1012.3 hPa | 0 mm | - | 36 W/m² | - |
| 1777468854 | 19.44° C | 99% | 1012.4 hPa | 0 mm | - | 47 W/m² | - |
| 1777468550 | 19.44° C | 99% | 1012.5 hPa | 0 mm | - | 18 W/m² | - |
| 1777468247 | 19.44° C | 99% | 1012.2 hPa | 0 mm | - | 37 W/m² | - |
| 1777467944 | 19.44° C | 99% | 1012.1 hPa | 0 mm | - | 43 W/m² | - |
* Rain latest hour (hover to see other rain measurements)
** Current wind speed in m/s (hover to see current wind gust speed)